Location: Bergheim
(50.9593°N, 6.6400°E)
Time: 11:14:35
(UTC+02:00)

ISS - Pass Details

Date: 26 May 2021
Orbit: 417 x 422 km, 51.6° (Epoch: 13 June)

Event Time Altitude Azimuth Distance (km) Brightness Sun altitude
Rises 23:00:10 0° 285° (WNW) 2,368 0.9 -10.6°
Reaches altitude 10° 23:02:18 10° 280° (W) 1,503 -0.3 -10.7°
Maximum altitude 23:05:35 51° 204° (SSW) 536 -3.5 -11.0°
Enters shadow 23:07:52 18° 132° (SE) 1,114 -2.2 -11.2°
